STARLINK-11258, 62598

Orbit data source: Space-Track

STARLINK-11258, 62598 is a payload satellite owned by SpaceX/Seattle (US) in LEO that was launched on Mon, 13 Jan 2025 UTC via an FALCON 9 launch vehicle from the Air Force Eastern Test Range (AFETR). Payload-class satellites include a variety of spacecraft equipped with specific instruments for various scientific and technological missions. These include communications satellites like Starlink; space stations such as the ISS; scientific satellites like the Hubble; Earth observation satellites from companies like Planet Labs, Umbra, and HawkEye 360; GPS; miniature CubeSats for education and research; and military/defense satellites.

Loading next visibility...
Identifier
62598, 2025-008M
Orbit
LEO
Last TLE update
20 hours ago
Origin
Manufacturer
SpaceX/Seattle
Mission
Operational Commercial Communications
Bus & Motor
STARLINK V2M, Unknown motor
Mass
730 kg wet, ~700 kg dry
Launch date (UTC)
2025-01-13 (4 months ago)
Launch vehicle
FALCON 9
Launch site
Air Force Eastern Test Range (AFETR)
Object type
Payload
Rocket body
Debris
Shape & HBR
Box + 2 Pan, 29 m
Radar Cross Section
36.964 m², Large (>1 m²)

Expand to show TLE details & history

TLE from 20 hours ago
0 STARLINK-11258
1 62598U 25008M   25128.41675863  .00003872  00000-0  33695-4 0  9993
2 62598  43.0024 166.1668 0001318 269.4799  90.5917 15.70808358 19273
Epoch: 2025-05-08T10:00Z
Definitive object data (Epoch: 2025-05-08T10:00:07.945Z)
Latitude
-0.00007°
Longitude
149.64606°
Altitude
356.366 km
Speed
7.697 km/s
True Right ascension
11h 04m 40s
True Declination
0° 00' 00"
Sunlit
Object was in full shadow at TLE epoch
Visualization TLE readout
Latitude
35.17024°
Longitude
-84.17495°
Altitude
358.818 km
Speed
7.699 km/s
Apparent Right ascension
22h 42m 14s
Apparent Declination
-1° 54' 19"
Sunlit
Object is in daylight
Visualization observer readout
Local Sidereal Time
14:30:25
Azimuth
68.916° E
Elevation
-25.995°
Doppler factor
1
Orbital elements
Apogee altitude
359.455 km
Perigee altitude
357.679 km
Semi-major axis
6,736.704 km
Eccentricity
0.0001318
Inclination
43.0024°
RAAN
166.1668°
Arg. of periapsis
269.4799°
True anomaly
90.6068°
Mean anomaly
90.5917°
Eccentric anomaly
90.59925°
Mean motion
3.92529 °/min
BSTAR
0.000033695
Orbital period
91.71 mins
Loading maneuver chart data...
Loading SW <> Apogee altitude chart data...
Loading historical data...
Loading historical data...
Loading historical data...
Loading historical data...
Loading historical data...
Loading historical data...
Loading historical data...

STARLINK-11258 Visibility forecast

Observer location: undefined°, undefined°

Span
Click to sort rows by Start time (UTC) header in descending order
Start Az.
Max El. time (UTC)
Max El. Az.
Max El.
End time (UTC)
End Az.
5 mins2025-05-09 07:39:36.404Z273.383° WNW2025-05-09 07:42:36.404Z13.061° NNE36.988°2025-05-09 07:44:36.404Z65.477° ENE
4 mins2025-05-09 10:53:36.404Z264.783° W2025-05-09 10:54:36.404Z221.777° SW36.214°2025-05-09 10:57:36.404Z129.358° SE
|